Wind_Speed
13 12 11 10 8 7 5 3 2 2 1 2 3 3 4 5 6 6 6 6 6 7 6 6 6 7 7 7 7 7 6 6 5 5 5 5 5 5 5 5 5 4 3 2
15 14 14 13 11 9 7 5 4 3 2 1 2 3 3 5 5 5 5 5 5 6 5 5 5 6 6 7 6 6 6 6 5 5 5 4 4 4 4 4 3 3 2 2
16 16 16 15 12 11 9 8 6 5 3 3 2 3 4 5 5 5 4 4 4 4 4 4 4 5 6 6 6 6 5 5 5 5 5 5 4 4 3 3 3 3 2 1
19 18 17 15 14 13 11 10 9 7 5 5 3 2 5 5 5 5 5 4 4 3 3 3 4 4 5 5 5 5 5 5 5 5 4 4 4 4 4 3 3 2 2 1
21 19 18 17 16 15 14 13 10 9 8 6 5 4 5 6 5 5 5 5 4 3 3 3 3 4 4 4 4 4 4 4 4 4 3 3 3 4 4 3 3 2 1 1
22 20 20 19 18 17 16 13 12 10 8 9 7 5 6 7 6 5 5 5 4 4 3 3 3 4 4 3 3 4 4 3 3 3 3 3 3 3 3 3 2 2 1 1
22 22 21 20 19 18 17 14 12 11 11 11 10 8 7 7 6 6 6 6 5 5 4 4 4 4 3 2 2 3 3 3 3 3 3 3 2 2 2 2 2 2 3 2
23 23 23 22 21 20 18 16 15 14 12 12 13 11 9 8 8 7 7 7 6 6 5 6 6 6 4 3 3 3 3 3 3 2 2 2 2 2 2 2 3 3 3 3
24 24 24 24 22 21 20 18 16 16 15 13 14 13 12 10 9 8 8 8 7 7 6 6 7 7 6 5 4 4 4 3 3 3 2 2 2 2 3 3 4 4 4 5
24 23 24 24 23 23 22 20 19 18 17 16 16 15 13 13 12 11 10 9 9 9 8 8 8 8 7 7 6 5 5 5 5 4 4 4 4 4 4 4 5 5 6 6
24 23 23 23 23 22 22 21 20 20 20 18 17 17 17 16 14 13 12 12 11 11 10 10 9 9 8 8 8 7 7 7 7 6 6 6 6 6 6 6 6 7 7 7
25 24 24 24 23 23 23 23 22 21 21 20 19 18 19 17 16 15 14 13 13 13 12 12 11 11 10 10 10 9 9 9 9 9 8 8 8 7 7 8 8 8 8 7
28 27 25 24 24 25 25 25 24 22 22 21 20 19 20 19 18 17 16 15 15 15 14 14 14 13 13 12 12 11 11 11 11 10 10 9 9 9 9 9 9 9 9 9
30 29 28 26 25 25 25 26 25 24 23 22 21 20 21 21 19 18 17 17 17 17 17 16 16 16 15 15 14 14 14 13 13 13 12 12 12 12 11 11 11 11 11 10
31 31 30 29 28 27 27 27 26 25 24 23 22 21 22 22 21 19 19 19 19 19 19 19 18 18 18 18 17 17 17 16 15 14 14 14 14 14 13 13 13 13 12 12
32 32 31 31 30 29 29 28 27 26 25 25 24 24 24 24 23 22 21 21 21 21 21 21 20 19 19 19 19 19 18 18 17 16 15 15 15 14 14 15 14 14 13 13
33 33 32 31 31 30 31 29 28 27 27 26 26 25 26 26 26 25 24 24 24 24 23 23 23 22 21 21 21 20 20 19 18 17 17 16 15 15 15 16 16 16 16 15
33 33 32 31 31 32 30 30 29 29 29 29 29 28 28 27 28 27 27 26 26 26 26 25 23 23 23 22 22 22 21 20 20 19 19 18 18 17 17 17 17 17 17 18
33 33 33 32 31 31 30 30 30 29 29 29 29 29 29 29 29 29 28 28 28 28 27 26 24 24 24 24 24 24 23 22 22 21 21 20 20 20 19 19 19 18 18 19
33 34 34 33 32 31 30 30 30 29 30 30 29 29 29 29 29 29 29 29 28 29 28 28 26 26 26 26 26 26 25 25 24 23 23 23 23 22 22 22 21 21 21 21
32 33 33 33 33 32 32 30 30 30 30 29 29 29 29 30 30 29 29 29 29 29 29 29 29 28 28 29 29 28 28 27 27 26 26 26 26 25 25 24 24 24 24 24
32 32 33 33 33 33 32 31 31 30 30 30 29 29 29 29 30 29 29 29 30 30 30 30 30 30 30 31 31 30 30 30 30 29 28 28 28 27 27 26 26 26 26 26
33 33 33 33 33 32 32 33 32 31 31 31 30 29 29 29 29 30 30 30 30 30 31 32 33 31 32 33 33 33 32 32 32 31 30 30 30 29 28 28 28 27 28 28
34 33 33 33 33 32 33 32 32 32 31 29 28 28 29 30 30 31 31 32 32 31 32 33 34 34 34 34 35 35 35 35 34 33 32 32 31 30 30 30 30 29 29 29
33 33 33 32 32 32 32 32 32 32 31 30 29 28 29 30 30 31 31 32 32 32 33 33 35 35 35 35 35 36 37 37 37 36 34 33 32 32 31 31 30 30 30 30
32 32 33 32 32 32 32 32 31 32 32 31 30 30 30 30 31 30 31 32 33 33 34 34 35 34 34 36 36 36 37 37 37 37 35 35 34 34 33 32 32 32 31 31
Wind_Direction
208 207 206 208 206 208 207 206 235 244 302 356 12 22 22 26 30 31 36 37 41 48 51 52 50 46 46 46 51 67 72 74 83 93 96 99 110 112 115 119 118 115 116 127
211 212 212 214 216 217 219 226 246 247 259 314 348 7 11 10 8 11 21 25 30 38 46 44 41 37 40 42 43 59 62 63 76 83 91 96 104 112 114 115 107 103 108 124
214 217 217 218 221 224 227 233 248 263 271 291 326 347 347 356 353 354 356 4 13 18 26 33 38 38 38 43 40 47 52 57 66 77 82 84 90 99 102 104 97 86 83 117
217 218 219 221 224 226 233 239 246 257 265 279 287 299 314 330 339 340 342 346 350 354 4 13 24 32 39 42 41 46 55 57 61 74 86 88 86 92 92 88 88 85 87 90
222 221 221 223 227 230 232 237 243 251 259 266 272 270 290 305 320 327 329 329 331 337 348 353 354 7 20 32 38 41 50 54 54 57 74 91 87 94 86 75 76 73 59 30
223 221 222 224 227 230 233 238 244 248 251 257 259 259 267 286 306 313 314 311 316 317 313 320 331 341 353 13 27 31 36 47 48 50 58 82 92 87 71 58 56 40 7 347
224 224 224 225 228 233 234 236 244 247 250 255 255 255 256 274 288 296 295 293 296 299 295 292 303 311 321 335 358 9 15 23 29 41 56 67 73 55 41 32 26 8 352 345
227 228 227 227 229 233 234 233 236 242 247 256 260 256 258 268 274 278 279 283 288 288 288 283 287 293 294 296 300 323 342 355 4 14 31 44 22 356 358 2 351 340 340 336
227 231 231 230 230 232 234 233 237 243 246 248 256 263 266 264 266 268 269 273 282 281 281 279 281 283 281 283 283 292 309 319 330 340 340 329 327 328 322 324 335 330 324 321
227 231 233 231 232 233 235 238 238 239 244 249 256 262 263 261 262 266 263 262 273 277 278 277 275 273 273 277 279 282 295 300 309 317 320 314 310 309 317 318 317 325 322 318
226 230 233 232 232 236 237 237 239 244 246 247 253 258 261 261 260 261 260 260 264 269 271 273 273 268 264 268 274 277 284 288 293 300 302 300 302 304 305 309 309 311 318 318
225 229 234 236 237 237 238 239 241 245 251 249 249 256 261 262 260 259 258 259 258 260 263 265 265 263 262 263 267 272 277 281 285 290 293 292 295 297 297 300 303 306 305 316
226 229 233 237 239 240 239 241 241 245 250 251 250 254 260 261 260 258 257 257 258 259 262 263 260 260 259 260 263 266 269 274 277 282 288 289 290 291 291 292 295 299 303 311
229 231 231 234 238 242 243 244 243 245 247 251 251 252 257 259 259 255 255 255 257 257 260 261 260 259 258 257 259 262 265 268 271 274 278 282 285 287 288 287 288 292 295 300
230 232 233 235 239 242 244 247 247 246 247 250 252 253 254 255 257 257 256 256 258 258 259 259 258 260 259 258 259 261 263 266 268 269 273 279 284 288 288 288 291 293 292 295
230 233 235 238 240 242 244 245 247 248 249 250 251 253 254 256 257 258 257 256 257 257 257 257 256 258 259 258 258 259 262 264 265 267 270 275 279 282 284 286 287 288 290 293
231 234 236 239 241 243 245 245 246 248 250 249 251 254 254 255 256 257 257 255 255 256 256 256 254 255 256 257 257 258 261 262 264 264 266 269 273 276 279 283 284 285 285 287
233 235 238 240 242 243 246 247 247 250 252 252 253 255 256 256 256 256 256 255 256 256 255 255 255 254 254 256 256 255 258 260 261 262 265 268 271 273 276 279 282 282 282 284
234 236 238 241 243 246 248 248 248 250 252 253 254 256 257 258 257 255 255 255 256 255 254 253 253 252 253 256 257 256 257 259 260 262 265 267 269 270 272 274 278 279 281 283
234 235 238 241 242 245 249 249 249 252 254 254 254 256 257 258 258 255 255 255 254 254 254 251 251 250 251 253 256 257 256 258 260 263 264 265 267 267 268 271 272 275 279 282
235 235 237 240 244 247 250 252 252 253 254 256 255 255 256 256 257 256 254 253 253 254 255 251 250 250 251 252 254 255 256 258 260 260 262 264 265 266 268 269 272 274 276 279
236 237 238 240 243 247 251 253 252 253 255 255 255 255 256 257 256 254 253 253 253 253 254 253 251 251 251 251 253 255 257 257 258 259 261 263 265 266 267 269 272 274 275 276
237 238 240 241 245 249 252 253 254 254 254 255 256 256 256 256 255 254 253 253 253 254 254 253 250 250 251 252 253 254 256 257 258 259 260 261 264 266 268 269 271 273 275 278
238 240 242 245 248 250 251 252 253 255 255 255 256 257 256 256 255 254 252 252 254 255 255 254 252 250 251 253 254 254 255 256 258 259 260 262 264 266 267 269 271 273 275 278
240 241 243 247 249 248 250 251 253 255 255 255 258 258 257 255 254 255 253 252 254 256 255 254 253 253 253 254 254 254 254 254 256 257 258 261 263 264 265 267 269 272 273 276
241 242 244 246 248 249 251 253 254 255 256 257 258 257 256 256 256 255 253 253 254 256 256 256 254 253 253 254 254 254 255 255 256 255 257 259 261 262 264 266 268 269 272 274
Height
5905 5908 5910 5911 5913 5914 5915 5916 5916 5916 5915 5915 5914 5914 5913 5912 5911 5910 5909 5908 5907 5906 5905 5903 5902 5901 5900 5898 5897 5896 5895 5893 5892 5892 5891 5891 5890 5890 5890 5889 5890 5889 5889 5889
5904 5906 5908 5909 5911 5912 5914 5915 5915 5915 5915 5915 5914 5914 5914 5913 5912 5911 5910 5909 5907 5906 5906 5905 5903 5902 5901 5900 5898 5897 5896 5895 5893 5893 5892 5892 5891 5891 5891 5891 5890 5890 5890 5889
5901 5904 5905 5907 5909 5911 5912 5914 5914 5914 5914 5914 5915 5915 5914 5914 5912 5912 5910 5909 5908 5907 5906 5905 5904 5903 5902 5901 5900 5898 5897 5896 5894 5893 5893 5892 5892 5892 5892 5891 5891 5891 5890 5890
5897 5900 5902 5904 5906 5908 5910 5911 5912 5913 5914 5915 5915 5916 5915 5913 5913 5912 5910 5909 5909 5908 5907 5906 5905 5904 5903 5902 5901 5899 5898 5897 5895 5894 5894 5893 5893 5893 5892 5892 5892 5891 5890 5890
5894 5896 5899 5901 5904 5906 5908 5909 5910 5911 5912 5914 5914 5915 5916 5913 5912 5911 5910 5909 5908 5908 5907 5906 5906 5905 5904 5903 5901 5900 5899 5898 5897 5895 5895 5894 5894 5893 5893 5892 5892 5891 5891 5890
5890 5893 5895 5898 5900 5902 5904 5906 5908 5909 5911 5912 5912 5913 5915 5912 5912 5911 5910 5909 5908 5908 5907 5906 5906 5905 5904 5903 5902 5901 5900 5899 5897 5896 5895 5895 5895 5894 5894 5893 5892 5892 5891 5890
5886 5889 5891 5894 5897 5899 5901 5905 5907 5908 5909 5911 5910 5911 5912 5911 5910 5910 5909 5908 5908 5907 5907 5906 5906 5905 5904 5903 5903 5901 5900 5899 5898 5897 5896 5896 5895 5895 5894 5893 5893 5892 5891 5890
5882 5885 5887 5890 5893 5895 5898 5902 5905 5907 5909 5909 5907 5908 5909 5909 5908 5908 5907 5907 5906 5906 5906 5906 5905 5904 5904 5903 5902 5902 5901 5900 5899 5898 5897 5896 5896 5895 5894 5893 5893 5892 5891 5890
5879 5882 5884 5886 5889 5892 5894 5897 5900 5902 5903 5905 5906 5905 5906 5905 5906 5905 5905 5905 5905 5905 5905 5904 5904 5903 5903 5902 5902 5901 5900 5900 5899 5898 5897 5896 5896 5895 5894 5893 5892 5891 5890 5889
5874 5877 5879 5881 5884 5886 5890 5892 5895 5897 5899 5901 5903 5902 5904 5902 5903 5903 5903 5903 5903 5903 5903 5902 5902 5902 5901 5901 5901 5900 5900 5899 5898 5897 5897 5896 5895 5895 5894 5893 5892 5891 5890 5889
5869 5872 5875 5877 5879 5882 5885 5887 5889 5892 5894 5897 5899 5902 5899 5899 5899 5900 5900 5901 5901 5900 5900 5900 5900 5899 5899 5899 5899 5899 5898 5898 5897 5896 5896 5895 5894 5894 5893 5892 5891 5890 5888 5887
5863 5867 5869 5872 5874 5876 5879 5881 5884 5887 5888 5890 5894 5898 5893 5894 5895 5896 5897 5897 5897 5897 5897 5897 5897 5897 5897 5897 5897 5896 5896 5896 5895 5895 5894 5894 5893 5892 5891 5890 5889 5888 5887 5885
5857 5861 5864 5867 5871 5871 5873 5875 5878 5881 5883 5884 5888 5892 5888 5889 5890 5891 5892 5893 5893 5894 5894 5894 5894 5894 5894 5894 5894 5894 5894 5894 5893 5893 5892 5892 5891 5890 5889 5889 5888 5886 5885 5884
5851 5854 5859 5863 5864 5866 5867 5870 5872 5874 5876 5879 5881 5884 5883 5883 5884 5886 5887 5888 5889 5889 5890 5890 5890 5890 5890 5891 5891 5891 5891 5890 5890 5890 5890 5889 5888 5888 5887 5886 5885 5884 5883 5882
5844 5848 5851 5855 5857 5860 5862 5863 5865 5867 5870 5873 5875 5876 5877 5877 5879 5880 5881 5882 5883 5884 5885 5885 5886 5886 5886 5887 5887 5887 5887 5887 5887 5887 5887 5886 5886 5885 5884 5883 5882 5881 5880 5879
5836 5841 5844 5847 5850 5852 5854 5857 5858 5861 5863 5865 5868 5869 5871 5871 5872 5874 5875 5876 5878 5879 5879 5880 5880 5881 5881 5882 5882 5883 5883 5883 5883 5883 5883 5882 5882 5881 5881 5880 5879 5878 5877 5876
5829 5833 5837 5840 5843 5845 5847 5850 5852 5854 5856 5858 5860 5862 5863 5864 5865 5867 5868 5869 5871 5872 5873 5874 5874 5875 5875 5876 5877 5878 5878 5878 5878 5878 5878 5878 5878 5877 5877 5876 5875 5874 5873 5872
5821 5825 5829 5832 5835 5837 5842 5842 5845 5847 5848 5850 5852 5854 5855 5856 5857 5859 5860 5861 5863 5864 5866 5866 5867 5868 5869 5870 5871 5872 5872 5873 5873 5873 5873 5873 5873 5873 5872 5871 5871 5870 5869 5868
5813 5817 5821 5824 5826 5829 5832 5834 5836 5838 5840 5842 5843 5845 5846 5847 5849 5850 5852 5853 5855 5856 5857 5859 5860 5861 5862 5863 5864 5865 5866 5867 5867 5867 5867 5867 5867 5867 5867 5866 5865 5865 5864 5863
5805 5809 5813 5815 5819 5821 5825 5826 5828 5831 5832 5833 5835 5836 5838 5839 5841 5842 5844 5845 5846 5847 5849 5850 5852 5853 5855 5856 5857 5858 5859 5860 5860 5861 5861 5861 5861 5861 5861 5860 5860 5859 5858 5857
5796 5800 5803 5807 5810 5813 5815 5817 5820 5823 5824 5825 5826 5828 5829 5831 5833 5834 5835 5836 5837 5839 5840 5841 5843 5845 5846 5848 5849 5850 5851 5852 5853 5853 5854 5854 5854 5854 5854 5853 5853 5853 5852 5851
5788 5792 5795 5798 5801 5806 5806 5808 5811 5813 5814 5816 5817 5819 5821 5822 5824 5825 5826 5827 5828 5830 5831 5832 5834 5835 5837 5839 5840 5841 5842 5844 5844 5845 5846 5846 5846 5846 5846 5846 5846 5846 5845 5845
5780 5784 5787 5791 5795 5796 5798 5799 5801 5804 5806 5807 5809 5810 5812 5814 5815 5816 5817 5818 5819 5820 5822 5823 5824 5826 5827 5829 5831 5832 5833 5835 5835 5836 5837 5837 5838 5838 5838 5838 5838 5838 5838 5837
5772 5775 5779 5781 5784 5787 5789 5790 5792 5794 5796 5798 5799 5801 5803 5804 5805 5807 5808 5809 5810 5811 5812 5813 5815 5816 5817 5819 5821 5822 5824 5825 5826 5827 5828 5828 5829 5830 5830 5830 5830 5830 5830 5829
5763 5767 5769 5771 5775 5777 5779 5781 5783 5785 5786 5788 5790 5791 5793 5794 5796 5797 5798 5800 5801 5802 5803 5803 5805 5806 5807 5809 5810 5811 5812 5814 5816 5817 5818 5819 5820 5820 5821 5821 5822 5821 5822 5821
5755 5758 5760 5763 5765 5768 5770 5772 5774 5775 5777 5778 5780 5781 5783 5784 5786 5788 5789 5790 5791 5792 5792 5793 5795 5796 5797 5798 5799 5800 5802 5804 5805 5806 5807 5809 5810 5811 5812 5812 5813 5813 5813 5812